| time (UTC) | temp F | wind direction | speed MPH | gust MPH | rain 1hr in | rain 24hr in | rain mn in | humidity % | barometer mb |
| 20260906061005 | 73 | 352 | 1.0 | 2.0 | 0.00 | 0.08 | 0.00 | 91 | 1010.5 |
| 20260906060004 | 73 | 352 | 2.0 | 3.0 | 0.00 | 0.08 | 0.00 | 90 | 1010.5 |
| 20260906055004 | 74 | 353 | 0.0 | 2.0 | 0.00 | 0.08 | 0.00 | 90 | 1010.6 |
| 20260906054046 | 74 | 352 | 1.0 | 2.0 | 0.00 | 0.08 | 0.00 | 89 | 1010.6 |
| 20260906053004 | 74 | 353 | 0.0 | 2.0 | 0.00 | 0.08 | 0.00 | 89 | 1010.6 |
| 20260906052025 | 74 | 350 | 1.0 | 2.0 | 0.00 | 0.08 | 0.00 | 89 | 1010.7 |
| 20260906051004 | 74 | 351 | 0.0 | 2.0 | 0.00 | 0.08 | 0.00 | 88 | 1010.9 |
| 20260906050026 | 74 | 359 | 0.0 | 2.0 | 0.00 | 0.08 | 0.00 | 88 | 1010.8 |
| 20260906045004 | 74 | 359 | 0.0 | 1.0 | 0.00 | 0.08 | 0.00 | 88 | 1010.7 |
| 20260906044004 | 75 | 352 | 0.0 | 1.0 | 0.00 | 0.08 | 0.00 | 88 | 1010.7 |
| 20260906043004 | 75 | 359 | 0.0 | 1.0 | 0.00 | 0.08 | 0.00 | 87 | 1010.7 |
| 20260906042004 | 75 | 360 | 0.0 | 2.0 | 0.00 | 0.08 | 0.00 | 86 | 1010.7 |
| 20260906041004 | 75 | 357 | 0.0 | 2.0 | 0.00 | 0.08 | 0.00 | 86 | 1010.3 |
| 20260906040004 | 75 | 357 | 1.0 | 2.0 | 0.00 | 0.08 | 0.08 | 85 | 1010.3 |
| 20260906035005 | 76 | 358 | 0.0 | 2.0 | 0.00 | 0.08 | 0.08 | 85 | 1010.3 |
| 20260906034004 | 76 | 353 | 1.0 | 2.0 | 0.00 | 0.08 | 0.08 | 85 | 1010.2 |
| 20260906033004 | 76 | 355 | 1.0 | 3.0 | 0.00 | 0.08 | 0.08 | 84 | 1010.1 |
| 20260906032004 | 76 | 356 | 1.0 | 3.0 | 0.00 | 0.08 | 0.08 | 84 | 1010.4 |
| 20260906031025 | 76 | 353 | 0.0 | 3.0 | 0.00 | 0.08 | 0.08 | 83 | 1010.2 |
| 20260906030004 | 76 | 357 | 0.0 | 1.0 | 0.00 | 0.08 | 0.08 | 83 | 1010.3 |
| 20260906025004 | 77 | 356 | 0.0 | 0.0 | 0.00 | 0.08 | 0.08 | 83 | 1010.2 |
| 20260906024004 | 77 | 343 | 0.0 | 0.0 | 0.00 | 0.08 | 0.08 | 84 | 1009.9 |
| 20260906023026 | 77 | 357 | 0.0 | 0.0 | 0.00 | 0.08 | 0.08 | 82 | 1009.9 |
| 20260906022004 | 77 | 356 | 0.0 | 2.0 | 0.00 | 0.08 | 0.08 | 80 | 1010.0 |
| 20260906021004 | 78 | 355 | 1.0 | 2.0 | 0.00 | 0.08 | 0.08 | 80 | 1010.1 |
| 20260906020004 | 78 | 359 | 0.0 | 3.0 | 0.00 | 0.08 | 0.08 | 80 | 1010.1 |
| 20260906015004 | 78 | 357 | 0.0 | 2.0 | 0.00 | 0.08 | 0.08 | 80 | 1010.1 |
| 20260906014004 | 78 | 0 | 0.0 | 2.0 | 0.00 | 0.08 | 0.08 | 80 | 1010.0 |
| 20260906013004 | 78 | 349 | 0.0 | 3.0 | 0.00 | 0.08 | 0.08 | 80 | 1009.9 |
| 20260906012004 | 78 | 352 | 1.0 | 3.0 | 0.00 | 0.08 | 0.08 | 79 | 1009.5 |
| 20260906011004 | 79 | 353 | 1.0 | 2.0 | 0.00 | 0.08 | 0.08 | 80 | 1009.7 |
| 20260906010004 | 79 | 354 | 0.0 | 3.0 | 0.00 | 0.08 | 0.08 | 79 | 1009.6 |
| 20260906005005 | 79 | 353 | 1.0 | 3.0 | 0.00 | 0.08 | 0.08 | 78 | 1009.7 |
| 20260906004004 | 79 | 353 | 1.0 | 5.0 | 0.00 | 0.08 | 0.08 | 78 | 1009.7 |
| 20260906003005 | 80 | 351 | 1.0 | 3.0 | 0.00 | 0.08 | 0.08 | 77 | 1009.6 |
| 20260906002004 | 80 | 351 | 1.0 | 3.0 | 0.00 | 0.08 | 0.08 | 76 | 1009.4 |
| 20260906001004 | 81 | 352 | 1.0 | 3.0 | 0.00 | 0.08 | 0.08 | 76 | 1009.5 |
| 20260906000005 | 82 | 352 | 1.0 | 2.0 | 0.00 | 0.08 | 0.08 | 74 | 1009.6 |
| 20260905235004 | 83 | 352 | 1.0 | 4.0 | 0.00 | 0.08 | 0.08 | 72 | 1009.8 |
| 20260905234025 | 84 | 352 | 3.0 | 4.0 | 0.00 | 0.08 | 0.08 | 71 | 1009.8 |
| 20260905233004 | 85 | 354 | 1.0 | 4.0 | 0.00 | 0.08 | 0.08 | 69 | 1009.5 |
| 20260905232004 | 86 | 356 | 2.0 | 6.0 | 0.00 | 0.08 | 0.08 | 65 | 1009.8 |
| 20260905231027 | 89 | 17 | 4.0 | 6.0 | 0.00 | 0.08 | 0.08 | 62 | 1009.9 |
| 20260905230004 | 91 | 315 | 1.0 | 5.0 | 0.00 | 0.08 | 0.08 | 60 | 1009.7 |
| 20260905225026 | 93 | 219 | 1.0 | 3.0 | 0.00 | 0.08 | 0.08 | 56 | 1009.7 |
| 20260905224004 | 94 | 185 | 0.0 | 2.0 | 0.00 | 0.08 | 0.08 | 58 | 1009.7 |
| 20260905223004 | 93 | 314 | 0.0 | 1.0 | 0.00 | 0.08 | 0.08 | 56 | 1009.3 |
| 20260905222004 | 92 | 314 | 0.0 | 3.0 | 0.00 | 0.08 | 0.08 | 55 | 1009.4 |
| 20260905221005 | 93 | 297 | 0.0 | 2.0 | 0.00 | 0.08 | 0.08 | 57 | 1009.5 |
| 20260905220027 | 93 | 308 | 1.0 | 4.0 | 0.00 | 0.08 | 0.08 | 54 | 1009.5 |
| 20260905215005 | 94 | 314 | 0.0 | 4.0 | 0.00 | 0.08 | 0.08 | 55 | 1009.4 |
| 20260905214004 | 93 | 314 | 3.0 | 5.0 | 0.00 | 0.08 | 0.08 | 53 | 1009.3 |
| 20260905213026 | 94 | 309 | 2.0 | 5.0 | 0.00 | 0.08 | 0.08 | 55 | 1009.5 |
| 20260905212005 | 94 | 161 | 0.0 | 3.0 | 0.00 | 0.08 | 0.08 | 53 | 1009.6 |
| 20260905211005 | 94 | 312 | 0.0 | 5.0 | 0.00 | 0.08 | 0.08 | 52 | 1009.5 |
| 20260905210005 | 95 | 313 | 0.0 | 4.0 | 0.00 | 0.08 | 0.08 | 51 | 1009.5 |
| 20260905205004 | 94 | 7 | 0.0 | 5.0 | 0.00 | 0.08 | 0.08 | 53 | 1009.4 |
| 20260905204004 | 94 | 21 | 1.0 | 2.0 | 0.00 | 0.08 | 0.08 | 52 | 1009.5 |
| 20260905203005 | 93 | 123 | 1.0 | 4.0 | 0.00 | 0.08 | 0.08 | 51 | 1009.6 |
| 20260905202005 | 93 | 158 | 0.0 | 5.0 | 0.00 | 0.08 | 0.08 | 56 | 1009.8 |
| 20260905201004 | 94 | 312 | 0.0 | 4.0 | 0.00 | 0.08 | 0.08 | 51 | 1009.9 |
| 20260905200027 | 93 | 202 | 0.0 | 2.0 | 0.00 | 0.08 | 0.08 | 57 | 1010.0 |
| 20260905195004 | 91 | 181 | 1.0 | 6.0 | 0.00 | 0.08 | 0.08 | 53 | 1010.2 |
| 20260905194046 | 91 | 163 | 2.0 | 5.0 | 0.00 | 0.08 | 0.08 | 57 | 1010.3 |
| 20260905193004 | 90 | 159 | 3.0 | 7.0 | 0.00 | 0.08 | 0.08 | 60 | 1010.4 |
| 20260905192004 | 89 | 128 | 3.0 | 9.0 | 0.00 | 0.08 | 0.08 | 57 | 1010.5 |
| 20260905190004 | 90 | 201 | 1.0 | 5.0 | 0.00 | 0.08 | 0.08 | 58 | 1010.7 |
| 20260905185005 | 89 | 194 | 2.0 | 7.0 | 0.00 | 0.08 | 0.08 | 60 | 1011.0 |
| 20260905184004 | 88 | 189 | 3.0 | 8.0 | 0.00 | 0.08 | 0.08 | 59 | 1011.1 |
| 20260905183025 | 88 | 202 | 1.0 | 7.0 | 0.00 | 0.08 | 0.08 | 64 | 1011.2 |
| 20260905182005 | 88 | 154 | 4.0 | 9.0 | 0.00 | 0.08 | 0.08 | 63 | 1011.4 |
| 20260905181005 | 88 | 167 | 3.0 | 8.0 | 0.00 | 0.36 | 0.08 | 68 | 1011.5 |
| 20260905180004 | 88 | 139 | 2.0 | 6.0 | 0.00 | 0.64 | 0.08 | 66 | 1011.5 |
| 20260905175004 | 87 | 203 | 2.0 | 6.0 | 0.00 | 1.09 | 0.08 | 69 | 1011.5 |
| 20260905174026 | 87 | 141 | 2.0 | 5.0 | 0.00 | 1.24 | 0.08 | 69 | 1011.8 |
| 20260905173006 | 86 | 148 | 1.0 | 5.0 | 0.00 | 1.24 | 0.08 | 68 | 1011.9 |
| 20260905172005 | 86 | 152 | 3.0 | 5.0 | 0.00 | 1.24 | 0.08 | 68 | 1012.0 |
| 20260905171004 | 85 | 141 | 3.0 | 5.0 | 0.00 | 1.24 | 0.08 | 70 | 1012.0 |
| 20260905170004 | 85 | 147 | 3.0 | 7.0 | 0.00 | 1.24 | 0.08 | 69 | 1012.0 |
| 20260905165004 | 84 | 125 | 1.0 | 7.0 | 0.00 | 1.24 | 0.08 | 72 | 1011.9 |
| 20260905164005 | 83 | 135 | 3.0 | 7.0 | 0.00 | 1.24 | 0.08 | 73 | 1011.9 |
| 20260905163005 | 82 | 123 | 2.0 | 5.0 | 0.00 | 1.24 | 0.08 | 75 | 1011.9 |
| 20260905162004 | 81 | 155 | 1.0 | 7.0 | 0.00 | 1.24 | 0.08 | 77 | 1012.0 |
| 20260905161005 | 80 | 157 | 2.0 | 7.0 | 0.00 | 1.24 | 0.08 | 83 | 1011.9 |
| 20260905160005 | 79 | 162 | 2.0 | 6.0 | 0.00 | 1.24 | 0.08 | 82 | 1012.1 |
| 20260905155005 | 79 | 141 | 0.0 | 4.0 | 0.00 | 1.24 | 0.08 | 83 | 1012.3 |
| 20260905154004 | 78 | 139 | 3.0 | 5.0 | 0.00 | 1.24 | 0.08 | 85 | 1012.4 |
| 20260905153004 | 77 | 140 | 1.0 | 6.0 | 0.00 | 1.24 | 0.08 | 88 | 1012.6 |
| 20260905152005 | 76 | 134 | 3.0 | 6.0 | 0.00 | 1.24 | 0.08 | 89 | 1012.8 |
| 20260905151004 | 76 | 145 | 1.0 | 5.0 | 0.00 | 1.24 | 0.08 | 89 | 1012.9 |
| 20260905150004 | 75 | 133 | 0.0 | 3.0 | 0.00 | 1.24 | 0.08 | 89 | 1012.8 |
| 20260905145026 | 74 | 108 | 1.0 | 4.0 | 0.00 | 1.24 | 0.08 | 91 | 1013.0 |
| 20260905144004 | 73 | 9 | 1.0 | 2.0 | 0.00 | 1.24 | 0.08 | 96 | 1013.1 |
| 20260905143004 | 72 | 10 | 1.0 | 3.0 | 0.00 | 1.24 | 0.08 | 96 | 1013.3 |
| 20260905142004 | 71 | 354 | 0.0 | 2.0 | 0.00 | 1.24 | 0.08 | 97 | 1013.2 |
| 20260905141005 | 70 | 353 | 1.0 | 2.0 | 0.00 | 1.24 | 0.08 | 97 | 1013.3 |
| 20260905140004 | 70 | 352 | 0.0 | 1.0 | 0.02 | 1.24 | 0.08 | 97 | 1013.4 |
| 20260905135004 | 70 | 352 | 1.0 | 5.0 | 0.02 | 1.24 | 0.08 | 97 | 1013.5 |
| 20260905133005 | 69 | 353 | 4.0 | 7.0 | 0.02 | 1.24 | 0.08 | 96 | 1013.5 |
| 20260905132004 | 69 | 352 | 2.0 | 6.0 | 0.01 | 1.23 | 0.07 | 96 | 1013.9 |
| 20260905131004 | 69 | 352 | 4.0 | 9.0 | 0.01 | 1.23 | 0.07 | 95 | 1013.8 |
| 20260905130005 | 70 | 353 | 6.0 | 12.0 | 0.06 | 1.22 | 0.06 | 95 | 1013.9 |
| 20260905125006 | 71 | 351 | 5.0 | 10.0 | 0.05 | 1.21 | 0.05 | 94 | 1014.2 |
| 20260905124006 | 72 | 354 | 6.0 | 18.0 | 0.03 | 1.19 | 0.03 | 92 | 1014.2 |
| 20260905123004 | 74 | 354 | 7.0 | 17.0 | 0.01 | 1.17 | 0.01 | 92 | 1014.3 |
| 20260905122004 | 74 | 358 | 8.0 | 13.0 | 0.00 | 1.16 | 0.00 | 91 | 1014.1 |
| 20260905121005 | 74 | 11 | 4.0 | 7.0 | 0.00 | 1.16 | 0.00 | 92 | 1012.7 |
| 20260905120005 | 74 | 8 | 6.0 | 9.0 | 0.00 | 1.16 | 0.00 | 93 | 1012.4 |
| 20260905115004 | 74 | 7 | 5.0 | 8.0 | 0.00 | 1.16 | 0.00 | 95 | 1012.4 |
| 20260905114005 | 74 | 3 | 3.0 | 7.0 | 0.00 | 1.16 | 0.00 | 97 | 1012.4 |
| 20260905113005 | 74 | 5 | 4.0 | 11.0 | 0.00 | 1.16 | 0.00 | 98 | 1012.5 |
| 20260905112004 | 73 | 2 | 3.0 | 4.0 | 0.00 | 1.16 | 0.00 | 98 | 1012.3 |
| 20260905111004 | 74 | 358 | 0.0 | 1.0 | 0.00 | 1.16 | 0.00 | 98 | 1011.4 |
| 20260905110004 | 74 | 358 | 0.0 | 2.0 | 0.00 | 1.16 | 0.00 | 98 | 1011.1 |
| 20260905105004 | 74 | 357 | 1.0 | 3.0 | 0.00 | 1.16 | 0.00 | 98 | 1011.0 |
| 20260905104004 | 74 | 358 | 2.0 | 4.0 | 0.00 | 1.16 | 0.00 | 98 | 1011.0 |
| 20260905103026 | 75 | 358 | 2.0 | 3.0 | 0.00 | 1.16 | 0.00 | 98 | 1011.0 |
| 20260905102005 | 74 | 357 | 0.0 | 2.0 | 0.00 | 1.16 | 0.00 | 98 | 1011.0 |
| 20260905101004 | 74 | 357 | 0.0 | 1.0 | 0.00 | 1.16 | 0.00 | 97 | 1011.2 |
| 20260905100028 | 74 | 358 | 1.0 | 2.0 | 0.00 | 1.16 | 0.00 | 97 | 1011.3 |
| 20260905095005 | 75 | 358 | 0.0 | 0.0 | 0.00 | 1.16 | 0.00 | 97 | 1011.2 |
| 20260905094005 | 75 | 358 | 0.0 | 1.0 | 0.00 | 1.16 | 0.00 | 97 | 1011.0 |
| 20260905093004 | 74 | 359 | 0.0 | 1.0 | 0.00 | 1.16 | 0.00 | 97 | 1011.2 |
| 20260905092004 | 75 | 358 | 0.0 | 1.0 | 0.00 | 1.16 | 0.00 | 97 | 1011.2 |
| 20260905091005 | 75 | 359 | 0.0 | 0.0 | 0.00 | 1.16 | 0.00 | 97 | 1011.1 |
| 20260905090005 | 75 | 358 | 0.0 | 0.0 | 0.00 | 1.16 | 0.00 | 97 | 1011.1 |
| 20260905085004 | 75 | 358 | 0.0 | 0.0 | 0.00 | 1.16 | 0.00 | 97 | 1010.9 |
| 20260905084006 | 75 | 358 | 0.0 | 0.0 | 0.00 | 1.16 | 0.00 | 97 | 1010.8 |
| 20260905083004 | 75 | 358 | 0.0 | 1.0 | 0.00 | 1.16 | 0.00 | 97 | 1010.7 |
| 20260905082005 | 75 | 357 | 0.0 | 3.0 | 0.00 | 1.16 | 0.00 | 97 | 1010.6 |
| 20260905081004 | 75 | 357 | 0.0 | 1.0 | 0.00 | 1.16 | 0.00 | 96 | 1010.8 |
| 20260905080005 | 75 | 358 | 0.0 | 0.0 | 0.00 | 1.16 | 0.00 | 96 | 1010.9 |
| 20260905075005 | 75 | 358 | 0.0 | 2.0 | 0.00 | 1.16 | 0.00 | 95 | 1010.9 |
| 20260905074004 | 76 | 358 | 0.0 | 2.0 | 0.00 | 1.16 | 0.00 | 95 | 1011.0 |
| 20260905073005 | 76 | 357 | 0.0 | 2.0 | 0.00 | 1.16 | 0.00 | 95 | 1011.0 |
| 20260905072005 | 76 | 358 | 0.0 | 2.0 | 0.00 | 1.16 | 0.00 | 94 | 1011.3 |
| 20260905071004 | 76 | 358 | 0.0 | 1.0 | 0.00 | 1.16 | 0.00 | 94 | 1011.4 |
| 20260905070005 | 76 | 359 | 0.0 | 0.0 | 0.00 | 1.16 | 0.00 | 93 | 1011.5 |
| 20260905065006 | 76 | 359 | 0.0 | 0.0 | 0.00 | 1.16 | 0.00 | 93 | 1011.6 |
| 20260905064004 | 76 | 359 | 0.0 | 2.0 | 0.00 | 1.16 | 0.00 | 93 | 1011.7 |
| 20260905063005 | 75 | 358 | 1.0 | 2.0 | 0.00 | 1.16 | 0.00 | 94 | 1011.8 |
| 20260905062006 | 75 | 358 | 0.0 | 0.0 | 0.00 | 1.16 | 0.00 | 94 | 1011.9 |